Location: Vancouver
(49.2500°N, 123.1330°W)
Time: 21:53:36
(UTC-07:00)

Cosmos 676 Rocket - Visible Passes

Search period start: 23 July 2016 00:00
Search period end: 02 August 2016 00:00
Orbit: 756 x 784 km, 74.0° (Epoch: 23 July)

Date Brightness Start Highest point End Pass type
(mag) Time Alt. Az. Time Alt. Az. Time Alt. Az.
23 Jul 5.6 23:13:04 10° NW 23:17:23 27° W 23:21:39 10° SSW visible
24 Jul 4.9 22:36:09 10° NW 22:41:02 43° WSW 22:45:56 10° S visible
25 Jul 4.3 21:59:25 10° NNW 22:04:36 69° WSW 22:09:46 10° SSE visible
26 Jul 6.3 23:06:16 10° WNW 23:09:30 17° W 23:12:45 10° SW visible
27 Jul 5.8 22:28:57 10° NW 22:33:15 27° W 22:37:34 10° SSW visible
28 Jul 5.1 21:52:01 10° NW 21:56:55 42° WSW 22:01:48 10° S visible
30 Jul 6.5 22:22:10 10° WNW 22:25:23 17° W 22:28:36 10° SW visible
31 Jul 6.0 21:44:51 10° NW 21:49:09 26° W 21:53:26 10° SSW visible
